TimeEDT,TemperatureF,Dew PointF,Humidity,Sea Level PressureIn,VisibilityMPH,Wind Direction,Wind SpeedMPH,Gust SpeedMPH,PrecipitationIn,Events,Conditions,WindDirDegrees,DateUTC
12:54 AM,55.0,54.0,96,30.06,10.0,Calm,Calm,-,N/A,,Clear,0,2013-10-01 04:54:00
1:54 AM,53.1,52.0,96,30.06,10.0,Calm,Calm,-,N/A,,Clear,0,2013-10-01 05:54:00
2:54 AM,51.1,50.0,96,30.06,9.0,Calm,Calm,-,N/A,,Clear,0,2013-10-01 06:54:00
3:54 AM,51.1,50.0,96,30.06,10.0,Calm,Calm,-,N/A,,Clear,0,2013-10-01 07:54:00
4:54 AM,51.1,50.0,96,30.07,10.0,Calm,Calm,-,N/A,,Clear,0,2013-10-01 08:54:00
5:54 AM,50.0,48.9,96,30.08,10.0,Calm,Calm,-,N/A,,Clear,0,2013-10-01 09:54:00
6:54 AM,50.0,48.9,96,30.10,8.0,Calm,Calm,-,N/A,,Clear,0,2013-10-01 10:54:00
7:54 AM,53.1,52.0,96,30.12,9.0,Calm,Calm,-,N/A,,Clear,0,2013-10-01 11:54:00
8:54 AM,61.0,55.9,83,30.13,10.0,Calm,Calm,-,N/A,,Clear,0,2013-10-01 12:54:00
9:54 AM,69.1,55.9,63,30.14,10.0,Calm,Calm,-,N/A,,Clear,0,2013-10-01 13:54:00
10:54 AM,73.9,54.0,50,30.14,10.0,NNW,3.5,-,N/A,,Clear,330,2013-10-01 14:54:00
11:54 AM,78.1,55.0,45,30.12,10.0,Variable,5.8,-,N/A,,Clear,0,2013-10-01 15:54:00
12:54 PM,81.0,54.0,39,30.10,10.0,NNW,8.1,-,N/A,,Clear,340,2013-10-01 16:54:00
1:54 PM,82.0,54.0,38,30.07,10.0,North,5.8,-,N/A,,Clear,10,2013-10-01 17:54:00
2:54 PM,82.0,54.0,38,30.05,10.0,NNE,4.6,-,N/A,,Clear,30,2013-10-01 18:54:00
3:54 PM,82.9,54.0,37,30.04,10.0,ENE,4.6,-,N/A,,Scattered Clouds,60,2013-10-01 19:54:00
4:54 PM,81.0,54.0,39,30.03,10.0,North,5.8,-,N/A,,Clear,360,2013-10-01 20:54:00
5:54 PM,79.0,57.9,48,30.04,10.0,Calm,Calm,-,N/A,,Clear,0,2013-10-01 21:54:00
6:54 PM,73.0,61.0,66,30.04,10.0,Calm,Calm,-,N/A,,Clear,0,2013-10-01 22:54:00
7:54 PM,66.9,62.1,84,30.06,10.0,Calm,Calm,-,N/A,,Clear,0,2013-10-01 23:54:00
8:54 PM,64.0,60.1,87,30.07,10.0,Calm,Calm,-,N/A,,Clear,0,2013-10-02 00:54:00
9:54 PM,61.0,59.0,93,30.09,10.0,Calm,Calm,-,N/A,,Clear,0,2013-10-02 01:54:00
10:54 PM,60.1,57.9,93,30.10,9.0,Calm,Calm,-,N/A,,Clear,0,2013-10-02 02:54:00
11:54 PM,59.0,57.0,93,30.10,9.0,Calm,Calm,-,N/A,,Clear,0,2013-10-02 03:54:00